Find Qianfan Jigui 02-11

NORAD ID: 61562 Int'l Des: 2024-185 Owner: YUANX Country: CN Constellation: spacesail operational
LEOCIRCULARPOLAR

リアルタイム位置

3D地球を読み込み中...

Qianfan Jigui 02-11について

説明を読み込み中...

次回通過

Passes for default location (London). Set your location on the main map for personalized predictions.

高度履歴

Loading altitude history...

軌道要素

1 61562U 24185L 26139.78509924 .00000096 00000-0 13017-3 0 9995
2 61562 88.9809 64.9598 0008654 324.3378 35.7194 13.51068903 89134
Epoch: May 19, 2026 • Age: 6 hours

現在のステータス

高度 1076.8 km
速度 7.32 km/s
衛星直下点 52.67°N, 177.92°W
打ち上げ日 Oct 15, 2024
運用期間 1.5 years
タイプ internet

技術仕様

分類 Payload
質量 267.00 kg
乾燥質量 267.00 kg
総質量 267.00 kg
長さ 0.30 m
直径 3.00 m
スパン 10.00 m
形状 Box+pan
製造者 GESIH/SECM
バスタイプ Qianfan
フェーズステータス In Orbit
所有者/国 YUANX/CN

Most Searched